This is the latest recevied weather packets stored in our database for station/object SP3TOM-10. If no packets are shown the sender has not sent any weather packets the latest 10 day(s).
| Time | Temp. | Humidity | Pressure | Rain* | Wind** | Luminosity | Snow |
|---|---|---|---|---|---|---|---|
| 1777672873 | 18.89° C | 32% | 1014.1 hPa | - | - | - | - |
| 1777671973 | 19.44° C | 32% | 1014.2 hPa | - | - | - | - |
| 1777671073 | 19.44° C | 32% | 1014.1 hPa | - | - | - | - |
| 1777670173 | 19.44° C | 31% | 1014 hPa | - | - | - | - |
| 1777669273 | 20° C | 31% | 1014.1 hPa | - | - | - | - |
| 1777668373 | 20° C | 31% | 1014.2 hPa | - | - | - | - |
| 1777667472 | 20.56° C | 30% | 1014.1 hPa | - | - | - | - |
| 1777666572 | 21.11° C | 30% | 1013.9 hPa | - | - | - | - |
| 1777665672 | 21.67° C | 29% | 1013.9 hPa | - | - | - | - |
| 1777664772 | 22.78° C | 27% | 1013.9 hPa | - | - | - | - |
| 1777663872 | 22.22° C | 28% | 1013.8 hPa | - | - | - | - |
| 1777662972 | 22.22° C | 28% | 1013.9 hPa | - | - | - | - |
| 1777662073 | 22.78° C | 28% | 1013.7 hPa | - | - | - | - |
| 1777661171 | 23.33° C | 27% | 1013.7 hPa | - | - | - | - |
| 1777660271 | 23.33° C | 27% | 1013.6 hPa | - | - | - | - |
| 1777659371 | 23.89° C | 28% | 1013.5 hPa | - | - | - | - |
| 1777658471 | 23.89° C | 27% | 1013.3 hPa | - | - | - | - |
| 1777657571 | 24.44° C | 27% | 1013.2 hPa | - | - | - | - |
| 1777656670 | 24.44° C | 26% | 1013.3 hPa | - | - | - | - |
| 1777655770 | 24.44° C | 26% | 1013.3 hPa | - | - | - | - |
| 1777654870 | 24.44° C | 26% | 1013.3 hPa | - | - | - | - |
| 1777653970 | 24.44° C | 26% | 1013.4 hPa | - | - | - | - |
| 1777653070 | 24.44° C | 25% | 1013.4 hPa | - | - | - | - |
| 1777652169 | 24.44° C | 24% | 1013.5 hPa | - | - | - | - |
| 1777651269 | 25° C | 24% | 1013.7 hPa | - | - | - | - |
* Rain since midnight (hover to see other rain measurements)
** Current wind speed in m/s (hover to see current wind gust speed)